Location: Campillo
(40.8621°N, 4.2488°W)
Time: 14:10:11
(UTC+00:00)

SJ-6B - Pass Details

Date: 28 September 2021
Orbit: 508 x 581 km, 97.6° (Epoch: 26 October)

Event Time Altitude Azimuth Distance (km) Brightness Sun altitude
Exits shadow 19:30:26 31° 72° (ENE) 1,026 3.7 -17.1°
Maximum altitude 19:30:29 31° 71° (ENE) 1,026 3.7 -17.1°
Drops below altitude 10° 19:34:06 10° 9° (N) 1,884 5.6 -17.8°
Sets 19:36:24 0° 359° (N) 2,776 6.6 -18.2°
